EW9204 Weather Reports


Display with metric or nautical units.
time (UTC)temp
F
wind
direction
speed
MPH
gust
MPH
rain 1hr
in
rain 24hr
in
rain mn
in
humidity
%
barometer
mb
20260831022019 71 0 0.0 2.0 0.02 0.09 0.09 94 1020.1
20260831021545 71 338 1.0 3.0 0.03 0.09 0.09 93 1020.2
20260831021022 71 9 1.0 3.0 0.03 0.09 0.09 93 1020.2
20260831020522 71 178 1.0 2.0 0.03 0.08 0.08 93 1020.2
20260831020100 71 309 0.0 3.0 0.03 0.08 0.08 93 1020.3
20260831015522 71 0 0.0 3.0 0.04 0.08 0.08 93 1020.2
20260831015020 71 165 1.0 3.0 0.04 0.08 0.08 93 1020.2
20260831014539 71 162 0.0 2.0 0.05 0.08 0.08 93 1020.1
20260831014019 71 9 0.0 2.0 0.05 0.08 0.08 93 1020.0
20260831013519 71 0 0.0 1.0 0.05 0.07 0.07 93 1020.0
20260831013042 71 0 0.0 2.0 0.05 0.07 0.07 93 1019.9
20260831012521 71 360 0.0 2.0 0.05 0.07 0.07 93 1019.9
20260831012019 71 0 0.0 2.0 0.05 0.07 0.07 93 1019.9
20260831011540 71 0 0.0 2.0 0.05 0.06 0.06 92 1019.9
20260831011018 71 71 0.0 2.0 0.05 0.06 0.06 92 1019.9
20260831010518 72 0 0.0 2.0 0.05 0.05 0.05 92 1019.8
20260831010042 72 34 0.0 2.0 0.05 0.05 0.05 92 1019.8
20260831005519 72 9 0.0 2.0 0.04 0.04 0.04 92 1019.8
20260831005019 72 0 0.0 2.0 0.04 0.04 0.04 92 1019.7
20260831004546 72 0 0.0 2.0 0.03 0.03 0.03 91 1019.6
20260831004015 72 153 0.0 2.0 0.03 0.03 0.03 91 1019.6
20260831003516 72 137 0.0 2.0 0.02 0.02 0.02 91 1019.6
20260831003041 72 0 0.0 3.0 0.02 0.02 0.02 90 1019.6
20260831002520 73 334 0.0 3.0 0.02 0.02 0.02 90 1019.5
20260831002024 73 309 0.0 3.0 0.02 0.02 0.02 90 1019.5
20260831001548 73 319 0.0 3.0 0.01 0.01 0.01 89 1019.4
20260831001019 73 238 0.0 2.0 0.01 0.01 0.01 89 1019.4
20260831000517 73 0 0.0 2.0 0.00 0.00 0.00 88 1019.2
20260831000041 73 0 0.0 2.0 0.00 0.00 0.00 88 1019.2
20260830235517 74 0 0.0 2.0 0.00 0.00 0.00 87 1019.2
20260830235021 74 0 0.0 2.0 0.00 0.00 0.00 87 1019.3
20260830234545 74 0 0.0 3.0 0.00 0.00 0.00 86 1019.1
20260830234019 74 67 0.0 3.0 0.00 0.00 0.00 85 1019.0
20260830233520 74 162 0.0 3.0 0.00 0.00 0.00 85 1018.9
20260830233041 74 0 0.0 2.0 0.00 0.00 0.00 84 1018.8
20260830232519 75 51 0.0 2.0 0.00 0.00 0.00 84 1018.8
20260830232024 75 0 0.0 2.0 0.00 0.00 0.00 84 1018.8
20260830231539 75 0 0.0 2.0 0.00 0.00 0.00 83 1018.8
20260830231017 75 0 0.0 2.0 0.00 0.00 0.00 83 1018.8
20260830230518 75 0 0.0 1.0 0.00 0.00 0.00 83 1018.9
20260830230041 75 0 0.0 2.0 0.00 0.00 0.00 83 1018.9
20260830225516 75 0 0.0 3.0 0.00 0.00 0.00 83 1019.0
20260830225016 75 153 1.0 3.0 0.00 0.00 0.00 82 1018.9
20260830224542 75 142 1.0 3.0 0.00 0.00 0.00 82 1018.9
20260830224019 76 0 0.0 2.0 0.00 0.00 0.00 81 1019.0
20260830223521 76 178 1.0 3.0 0.00 0.00 0.00 81 1018.9
20260830223039 76 0 1.0 4.0 0.00 0.00 0.00 81 1018.9
20260830222518 76 217 1.0 4.0 0.00 0.00 0.00 81 1019.0
20260830222020 76 232 1.0 4.0 0.00 0.00 0.00 81 1019.1
20260830221547 76 198 1.0 4.0 0.00 0.00 0.00 80 1019.2
20260830221017 76 0 1.0 7.0 0.00 0.00 0.00 80 1019.4
20260830220516 76 265 2.0 8.0 0.00 0.00 0.00 80 1019.3
20260830220051 76 221 2.0 10.0 0.00 0.00 0.00 79 1019.4
20260830215521 76 146 3.0 10.0 0.00 0.00 0.00 80 1019.3
20260830215023 76 190 1.0 5.0 0.00 0.00 0.00 79 1019.2
20260830214543 76 200 1.0 10.0 0.00 0.00 0.00 79 1019.2
20260830214019 77 236 3.0 10.0 0.00 0.00 0.00 78 1019.1
20260830213518 77 121 2.0 6.0 0.00 0.00 0.00 79 1019.2
20260830213049 77 195 2.0 7.0 0.00 0.00 0.00 79 1019.0
20260830212516 77 229 3.0 8.0 0.00 0.00 0.00 78 1019.1
20260830212019 77 196 1.0 8.0 0.00 0.00 0.00 79 1019.1
20260830211552 77 207 3.0 8.0 0.00 0.00 0.00 78 1019.1
20260830211019 77 0 2.0 6.0 0.00 0.00 0.00 78 1019.2
20260830210520 77 190 1.0 7.0 0.00 0.00 0.00 79 1019.2
20260830210054 77 238 2.0 7.0 0.00 0.00 0.00 79 1019.2
20260830205522 77 213 2.0 10.0 0.00 0.00 0.00 78 1019.3
20260830205018 77 212 2.0 10.0 0.00 0.00 0.00 78 1019.4
20260830204551 77 221 2.0 10.0 0.00 0.00 0.00 78 1019.4
20260830204018 77 229 3.0 9.0 0.00 0.00 0.00 79 1019.4
20260830203518 77 284 2.0 10.0 0.00 0.00 0.00 78 1019.5
20260830203046 76 217 3.0 10.0 0.00 0.00 0.00 78 1019.6
20260830202519 77 215 2.0 9.0 0.00 0.00 0.00 79 1019.6
20260830202019 76 200 2.0 9.0 0.00 0.00 0.00 79 1019.5
20260830201540 76 144 3.0 8.0 0.00 0.00 0.00 79 1019.6
20260830201020 76 221 3.0 8.0 0.00 0.00 0.00 79 1019.6
20260830200518 76 212 2.0 6.0 0.00 0.00 0.00 80 1019.7
20260830200040 75 230 2.0 7.0 0.00 0.00 0.00 80 1019.8
20260830195519 75 234 2.0 7.0 0.00 0.00 0.00 80 1019.9
20260830195017 75 225 2.0 8.0 0.00 0.00 0.00 80 1019.9
20260830194539 75 170 2.0 8.0 0.00 0.00 0.00 80 1019.9
20260830194017 75 225 3.0 7.0 0.00 0.00 0.00 80 1019.9
20260830193517 75 236 2.0 7.0 0.00 0.00 0.00 79 1020.0
20260830193041 75 227 1.0 5.0 0.00 0.00 0.00 79 1020.0
20260830192519 75 295 1.0 4.0 0.00 0.00 0.00 78 1020.1
20260830192021 75 146 0.0 6.0 0.00 0.00 0.00 78 1020.1
20260830191539 75 178 2.0 7.0 0.00 0.00 0.00 78 1020.3
20260830191021 75 212 2.0 7.0 0.00 0.00 0.00 78 1020.4
20260830190521 75 265 2.0 6.0 0.00 0.00 0.00 77 1020.5
20260830190042 75 254 2.0 7.0 0.00 0.00 0.00 77 1020.5
20260830185518 75 158 2.0 7.0 0.00 0.00 0.00 76 1020.7
20260830185019 75 153 2.0 7.0 0.00 0.00 0.00 76 1020.8
20260830184543 75 234 2.0 7.0 0.00 0.00 0.00 75 1020.9
20260830184017 75 208 2.0 7.0 0.00 0.00 0.00 74 1021.0
20260830183522 76 0 2.0 10.0 0.00 0.00 0.00 74 1020.9
20260830183041 76 129 2.0 10.0 0.00 0.00 0.00 73 1020.9
20260830182522 76 215 3.0 9.0 0.00 0.00 0.00 72 1020.8
20260830182022 76 238 2.0 9.0 0.00 0.00 0.00 72 1020.8
20260830181540 76 325 3.0 9.0 0.00 0.00 0.00 72 1021.0
20260830181021 76 144 2.0 10.0 0.00 0.00 0.00 73 1021.0
20260830180526 76 215 4.0 10.0 0.00 0.00 0.00 71 1021.3
20260830180039 76 214 4.0 9.0 0.00 0.00 0.00 69 1021.5
20260830175517 77 0 3.0 10.0 0.00 0.00 0.00 69 1021.6
20260830175023 77 165 3.0 10.0 0.00 0.00 0.00 68 1021.6
20260830174542 77 216 2.0 10.0 0.00 0.00 0.00 68 1021.5
20260830174022 78 217 4.0 11.0 0.00 0.00 0.00 67 1021.6
20260830173517 77 146 3.0 11.0 0.00 0.00 0.00 68 1021.6
20260830173037 77 0 3.0 8.0 0.00 0.00 0.00 67 1021.6
20260830172518 76 250 2.0 8.0 0.00 0.00 0.00 70 1021.7
20260830172019 76 51 2.0 7.0 0.00 0.00 0.00 69 1021.8
20260830171538 76 196 2.0 7.0 0.00 0.00 0.00 67 1021.8
20260830171022 76 221 2.0 8.0 0.00 0.00 0.00 66 1021.9
20260830170519 76 144 2.0 9.0 0.00 0.00 0.00 65 1022.0
20260830170037 76 231 2.0 10.0 0.00 0.00 0.00 65 1021.9
20260830165524 76 212 4.0 10.0 0.00 0.00 0.00 65 1022.0
20260830165021 77 221 3.0 9.0 0.00 0.00 0.00 64 1022.0
20260830164543 77 254 3.0 7.0 0.00 0.00 0.00 65 1022.0
20260830164023 77 137 2.0 9.0 0.00 0.00 0.00 63 1022.0
20260830163519 77 38 2.0 9.0 0.00 0.00 0.00 66 1022.1
20260830163036 76 211 3.0 10.0 0.00 0.00 0.00 63 1022.2
20260830162517 76 193 4.0 10.0 0.00 0.00 0.00 65 1022.3
20260830162019 76 201 4.0 9.0 0.00 0.00 0.00 62 1022.3
20260830161557 76 234 2.0 8.0 0.00 0.00 0.00 63 1022.5
20260830161018 76 191 2.0 8.0 0.00 0.00 0.00 63 1022.6
20260830160520 76 231 2.0 7.0 0.00 0.00 0.00 63 1022.5
20260830160037 76 115 2.0 10.0 0.00 0.00 0.00 62 1022.6
20260830155520 76 170 3.0 10.0 0.00 0.00 0.00 60 1022.7
20260830155021 76 234 2.0 8.0 0.00 0.00 0.00 59 1022.8
20260830154541 77 195 2.0 8.0 0.00 0.00 0.00 56 1022.8
20260830154018 77 212 1.0 10.0 0.00 0.00 0.00 59 1023.0
20260830153516 77 212 3.0 10.0 0.00 0.00 0.00 56 1023.2
20260830153054 77 0 2.0 10.0 0.00 0.00 0.00 56 1023.1
20260830152519 76 230 3.0 10.0 0.00 0.00 0.00 57 1023.2
20260830152021 76 146 2.0 8.0 0.00 0.00 0.00 58 1023.1
20260830151545 76 189 2.0 10.0 0.00 0.00 0.00 56 1023.3
20260830151017 76 309 3.0 10.0 0.00 0.00 0.00 59 1023.6
20260830150526 77 257 2.0 8.0 0.00 0.00 0.00 54 1023.7
20260830150042 77 207 2.0 6.0 0.00 0.00 0.00 56 1023.8
20260830145521 76 241 2.0 7.0 0.00 0.00 0.00 56 1023.9
20260830145020 76 93 2.0 7.0 0.00 0.00 0.00 58 1023.9
20260830144539 75 196 2.0 11.0 0.00 0.00 0.00 59 1023.8
20260830144019 75 183 2.0 11.0 0.00 0.00 0.00 61 1023.8
20260830143519 75 200 3.0 11.0 0.00 0.00 0.00 58 1023.8
20260830143050 74 175 3.0 10.0 0.00 0.00 0.00 58 1024.0
20260830142519 75 216 3.0 10.0 0.00 0.00 0.00 59 1024.0
20260830142017 75 202 4.0 10.0 0.00 0.00 0.00 57 1024.0
20260830141539 75 221 2.0 8.0 0.00 0.00 0.00 59 1024.1
20260830141019 75 178 2.0 9.0 0.00 0.00 0.00 63 1024.0
20260830140516 74 228 2.0 9.0 0.00 0.00 0.00 63 1024.0
20260830140040 74 103 2.0 6.0 0.00 0.00 0.00 67 1024.0
20260830135518 73 153 1.0 6.0 0.00 0.00 0.00 72 1024.1
20260830135018 73 165 3.0 6.0 0.00 0.00 0.00 67 1024.3
20260830134542 72 196 1.0 9.0 0.00 0.00 0.00 71 1024.2
20260830134018 72 265 3.0 9.0 0.00 0.00 0.00 71 1024.3
20260830133520 71 245 3.0 9.0 0.00 0.00 0.00 70 1024.2
20260830133036 71 232 3.0 7.0 0.00 0.00 0.00 71 1024.2
20260830132521 71 175 2.0 7.0 0.00 0.00 0.00 69 1024.0
20260830132021 71 257 3.0 7.0 0.00 0.00 0.00 69 1024.0
20260830131627 71 193 1.0 7.0 0.00 0.00 0.00 71 1023.9
20260830131021 70 221 1.0 7.0 0.00 0.00 0.00 72 1023.8
20260830130518 69 160 2.0 6.0 0.00 0.00 0.00 74 1023.9
20260830130051 69 238 1.0 5.0 0.00 0.00 0.00 77 1023.9
20260830125521 68 178 2.0 6.0 0.00 0.00 0.00 76 1024.0
20260830125017 67 162 2.0 6.0 0.00 0.00 0.00 77 1023.8
20260830124540 66 205 2.0 6.0 0.00 0.00 0.00 78 1023.7
20260830124018 66 165 1.0 3.0 0.00 0.00 0.00 82 1023.7
20260830123523 66 137 1.0 5.0 0.00 0.00 0.00 81 1023.7
20260830123039 65 202 1.0 5.0 0.00 0.00 0.00 82 1023.6
20260830122519 65 193 1.0 5.0 0.00 0.00 0.00 85 1023.5
20260830122018 64 144 0.0 2.0 0.00 0.00 0.00 91 1023.4
20260830121543 63 0 0.0 2.0 0.00 0.00 0.00 93 1023.5
20260830121020 63 0 0.0 2.0 0.00 0.00 0.00 93 1023.5
20260830120520 62 34 0.0 1.0 0.00 0.00 0.00 93 1023.4
20260830120047 62 334 0.0 2.0 0.00 0.00 0.00 93 1023.2
20260830115518 61 0 0.0 2.0 0.00 0.00 0.00 93 1023.3
20260830115018 61 0 0.0 2.0 0.00 0.00 0.00 93 1023.4
20260830114604 61 51 0.0 2.0 0.00 0.00 0.00 93 1023.4
20260830114017 61 0 0.0 2.0 0.00 0.00 0.00 93 1023.3
20260830113523 60 0 0.0 1.0 0.00 0.00 0.00 94 1023.2
20260830113046 60 51 0.0 2.0 0.00 0.00 0.00 94 1023.1
20260830112519 60 0 0.0 2.0 0.00 0.00 0.00 93 1023.1
20260830112020 60 68 0.0 2.0 0.00 0.00 0.00 94 1023.0
20260830111538 60 61 0.0 2.0 0.00 0.00 0.00 94 1023.0
20260830111019 59 93 0.0 2.0 0.00 0.00 0.00 94 1023.0
20260830110520 59 72 0.0 1.0 0.00 0.00 0.00 94 1023.0
20260830110043 59 76 0.0 1.0 0.00 0.00 0.00 94 1023.0
20260830105517 59 67 0.0 1.0 0.00 0.00 0.00 93 1023.1
20260830105016 59 51 0.0 2.0 0.00 0.00 0.00 93 1023.0
20260830104537 59 0 0.0 2.0 0.00 0.00 0.00 93 1023.0
20260830104017 59 61 0.0 3.0 0.00 0.00 0.00 93 1022.9
20260830103515 59 93 1.0 3.0 0.00 0.00 0.00 94 1023.0
20260830103041 59 9 1.0 3.0 0.00 0.00 0.00 93 1023.0
20260830102526 59 93 0.0 2.0 0.00 0.00 0.00 93 1023.0
20260830102021 59 51 0.0 2.0 0.00 0.00 0.00 93 1023.0
20260830101548 59 0 0.0 2.0 0.00 0.00 0.00 93 1023.0
20260830101024 59 309 0.0 2.0 0.00 0.00 0.00 93 1023.0
20260830100520 59 51 0.0 2.0 0.00 0.00 0.00 93 1022.9
20260830100037 59 67 0.0 2.0 0.00 0.00 0.00 93 1023.0
20260830095516 59 9 0.0 2.0 0.00 0.00 0.00 93 1023.1
20260830095020 58 68 0.0 1.0 0.00 0.00 0.00 93 1023.1
20260830094542 58 0 0.0 2.0 0.00 0.00 0.00 93 1023.2
20260830094020 58 26 0.0 2.0 0.00 0.00 0.00 93 1023.1
20260830093520 58 51 1.0 2.0 0.00 0.00 0.00 93 1023.1
20260830093039 58 0 1.0 2.0 0.00 0.00 0.00 93 1023.0
20260830092521 59 64 0.0 2.0 0.00 0.00 0.00 93 1023.0
20260830092017 59 41 1.0 2.0 0.00 0.00 0.00 93 1023.0
20260830091542 59 67 1.0 2.0 0.00 0.00 0.00 93 1023.1
20260830091017 59 61 0.0 2.0 0.00 0.00 0.00 93 1023.1
20260830090517 59 34 0.0 2.0 0.00 0.00 0.00 93 1023.1
20260830090041 59 0 1.0 2.0 0.00 0.00 0.00 93 1023.1
20260830085524 59 57 1.0 2.0 0.00 0.00 0.00 93 1023.2
20260830085019 59 51 1.0 2.0 0.00 0.00 0.00 94 1023.2
20260830084541 58 67 1.0 2.0 0.00 0.00 0.00 94 1023.2
20260830084017 58 67 1.0 2.0 0.00 0.00 0.00 94 1023.2
20260830083519 58 59 0.0 2.0 0.00 0.00 0.00 94 1023.3
20260830083042 59 83 0.0 2.0 0.00 0.00 0.00 94 1023.3
20260830082517 59 59 0.0 2.0 0.00 0.00 0.00 94 1023.4
20260830082019 59 76 0.0 1.0 0.00 0.00 0.00 94 1023.4
20260830081540 59 0 0.0 2.0 0.00 0.00 0.00 94 1023.3
20260830081017 59 51 0.0 2.0 0.00 0.00 0.00 94 1023.2
20260830080517 59 51 0.0 1.0 0.00 0.00 0.00 94 1023.3
20260830080041 58 9 0.0 1.0 0.00 0.00 0.00 94 1023.2
20260830075520 58 9 0.0 2.0 0.00 0.00 0.00 94 1023.3
20260830075022 58 0 0.0 2.0 0.00 0.00 0.00 94 1023.3
20260830074551 58 325 0.0 2.0 0.00 0.00 0.00 94 1023.2
20260830074017 58 0 0.0 1.0 0.00 0.00 0.00 94 1023.2
20260830073520 58 26 0.0 1.0 0.00 0.00 0.00 94 1023.3
20260830073038 58 0 0.0 1.0 0.00 0.00 0.00 94 1023.2
20260830072518 58 0 0.0 1.0 0.00 0.00 0.00 94 1023.3
20260830072017 58 309 0.0 1.0 0.00 0.00 0.00 94 1023.2
20260830071549 58 0 0.0 1.0 0.00 0.00 0.00 94 1023.0
20260830071017 58 67 0.0 1.0 0.00 0.00 0.00 94 1023.1
20260830070516 57 0 0.0 1.0 0.00 0.00 0.00 94 1023.2
20260830070046 57 0 0.0 2.0 0.00 0.00 0.00 94 1023.1
20260830065519 57 0 0.0 2.0 0.00 0.00 0.00 94 1023.1
20260830065019 57 51 1.0 2.0 0.00 0.00 0.00 94 1023.0
20260830064544 57 34 1.0 2.0 0.00 0.00 0.00 94 1023.0
20260830064019 57 44 0.0 2.0 0.00 0.00 0.00 94 1023.1
20260830063519 57 41 1.0 2.0 0.00 0.00 0.00 94 1023.2
20260830063039 57 41 0.0 2.0 0.00 0.00 0.00 94 1023.1
20260830062518 57 34 0.0 2.0 0.00 0.00 0.00 94 1023.1
20260830062024 57 51 0.0 2.0 0.00 0.00 0.00 94 1023.1
20260830061539 57 9 1.0 2.0 0.00 0.00 0.00 94 1023.1
20260830061020 57 41 1.0 2.0 0.00 0.00 0.00 94 1023.2
20260830060520 57 83 1.0 2.0 0.00 0.00 0.00 94 1023.2
20260830060039 57 41 1.0 2.0 0.00 0.00 0.00 94 1023.1
20260830055517 57 34 1.0 2.0 0.00 0.00 0.00 94 1023.2
20260830055019 57 0 0.0 1.0 0.00 0.00 0.00 94 1023.1
20260830054536 57 34 0.0 1.0 0.00 0.00 0.00 94 1023.1
20260830054019 57 9 0.0 2.0 0.00 0.00 0.00 94 1023.0
20260830053517 57 0 0.0 2.0 0.00 0.00 0.00 94 1023.0
20260830053039 57 34 1.0 2.0 0.00 0.00 0.00 94 1022.9
20260830052521 57 34 0.0 2.0 0.00 0.00 0.00 94 1022.8
20260830052026 57 38 1.0 2.0 0.00 0.00 0.00 94 1023.0
20260830051545 57 46 1.0 2.0 0.00 0.00 0.00 94 1022.9
20260830051021 57 59 1.0 2.0 0.00 0.00 0.00 94 1023.1
20260830050520 57 44 1.0 2.0 0.00 0.00 0.00 94 1023.1
20260830050041 57 51 1.0 2.0 0.00 0.00 0.00 94 1023.1
20260830045517 57 51 1.0 2.0 0.00 0.00 0.00 94 1023.2
20260830045017 57 51 0.0 2.0 0.00 0.00 0.00 94 1023.2
20260830044538 57 0 1.0 2.0 0.00 0.00 0.00 94 1023.1
20260830044020 57 0 1.0 2.0 0.00 0.00 0.00 94 1023.2
20260830043520 57 76 0.0 2.0 0.00 0.00 0.00 94 1023.2
20260830043039 57 34 1.0 2.0 0.00 0.00 0.00 93 1023.1
20260830042521 57 41 1.0 2.0 0.00 0.00 0.00 94 1023.0
20260830042019 57 51 1.0 2.0 0.00 0.00 0.00 94 1023.1
20260830041539 57 44 1.0 2.0 0.00 0.00 0.00 93 1023.0
20260830041023 57 51 0.0 2.0 0.00 0.00 0.00 93 1023.1
20260830040518 57 26 0.0 2.0 0.00 0.00 0.00 93 1023.0
20260830040105 58 51 1.0 2.0 0.00 0.00 0.00 93 1023.1
20260830035519 58 0 1.0 2.0 0.00 0.00 0.00 94 1023.0
20260830035018 57 9 1.0 2.0 0.00 0.00 0.00 93 1023.1
20260830034539 58 44 1.0 2.0 0.00 0.00 0.00 93 1023.1
20260830034017 58 51 1.0 2.0 0.00 0.00 0.00 93 1023.1
20260830033518 58 44 1.0 2.0 0.00 0.00 0.00 93 1023.2
20260830033043 58 30 1.0 2.0 0.00 0.00 0.00 93 1023.2
20260830032521 58 51 1.0 2.0 0.00 0.00 0.00 93 1023.1
20260830032021 58 67 1.0 2.0 0.00 0.00 0.00 93 1023.2
20260830031539 58 61 0.0 2.0 0.00 0.00 0.00 92 1023.2
20260830031018 58 57 1.0 2.0 0.00 0.00 0.00 92 1023.1
20260830030517 58 72 1.0 2.0 0.00 0.00 0.00 92 1023.2
20260830030043 58 51 1.0 2.0 0.00 0.00 0.00 92 1023.2
20260830025517 58 83 0.0 2.0 0.00 0.00 0.00 92 1023.2
20260830025016 58 9 0.0 2.0 0.00 0.00 0.00 92 1023.3
20260830024545 58 0 0.0 2.0 0.00 0.00 0.00 92 1023.2
20260830024020 58 93 0.0 2.0 0.00 0.00 0.00 92 1023.1
20260830023521 58 0 0.0 1.0 0.00 0.00 0.00 91 1023.2
20260830023037 58 0 0.0 1.0 0.00 0.00 0.00 92 1023.1
20260830022518 59 51 0.0 2.0 0.00 0.00 0.00 92 1023.0